[[{"header":{"parameterUnit":"m.s-1","parameterCategory":1,"la1":30.2991,"la2":30.254,"lo1":-89.0895,"lo2":-89.0444,"dy":0.0017,"dx":0.0017,"nx":28,"ny":28,"refTime":"2023-08-29T09:00:00:Z","depth":0,"parameterNumber":2,"parameterNumberName":"U-component_of_WINDS"},"data":[0,0,0,0,0,0,0,0,0,0,0,0,0,0,0,0,0,0,0,0,0,0,0,0,0,0,0,0,0,0,0,0,0,0,0,0,0,0,0,0,0,0,0,0,0,0,0,0,0,0,0,0,0,0,0,0,0,0,-1.5759,-1.5759,0,-1.5845,-1.5846,-1.5847,-1.5799,-1.5796,-1.5794,-1.5791,-1.5883,-1.5887,-1.5892,0,0,0,0,0,0,0,0,0,0,0,0,0,-1.5553,-1.5557,-1.5758,-1.576,-1.5761,-1.5845,-1.5846,-1.5847,-1.5799,-1.5796,-1.5793,-1.579,-1.5881,-1.5887,-1.5892,0,0,0,0,0,0,0,0,0,0,0,0,0,-1.5641,-1.5559,-1.5758,-1.5747,-1.5746,-1.5845,-1.5846,-1.5848,-1.58,-1.5796,-1.5792,-1.5789,-1.5879,-1.5886,-1.5893,-1.6008,0,0,-1.5914,-1.5917,0,0,0,0,0,0,0,0,-1.5636,-1.5649,-1.5747,-1.5748,-1.5748,-1.5807,-1.5807,-1.5902,-1.5801,-1.578,-1.5791,-1.5787,-1.5861,-1.5869,-1.5893,-1.6013,-1.6017,-1.5915,-1.5919,-1.5922,-1.5924,0,0,0,0,0,0,0,-1.563,-1.5645,-1.5793,-1.5749,-1.5749,-1.5738,-1.5746,-1.5825,-1.5839,-1.5781,-1.5778,-1.5789,-1.586,-1.5887,-1.5895,-1.6018,-1.5915,-1.5921,-1.5925,-1.5928,-1.6236,-1.624,0,0,0,0,0,0,-1.5625,-1.564,-1.579,-1.5795,-1.5682,-1.5744,-1.5754,-1.5792,-1.5838,-1.5842,-1.5792,-1.5786,-1.5876,-1.5887,-1.5898,-1.6037,-1.5922,-1.5929,-1.5933,-1.6232,-1.6237,-1.6241,0,0,0,0,0,0,-1.5621,-1.5639,-1.5786,-1.5717,-1.5735,-1.5752,-1.5795,-1.5795,-1.5822,-1.5846,-1.5849,-1.5816,-1.5874,-1.5888,-1.5981,-1.6039,-1.5932,-1.5938,-1.6228,-1.6234,-1.6239,-1.6315,0,0,0,0,0,0,-1.5615,-1.5637,-1.5681,-1.5718,-1.5739,-1.5868,-1.5798,-1.58,-1.5834,-1.5827,-1.587,-1.5873,-1.5872,-1.5971,-1.5988,-1.6047,-1.5944,-1.6223,-1.623,-1.6237,-1.6307,-1.6323,-1.6336,0,0,0,0,0,-1.5608,-1.5699,-1.5684,-1.5702,-1.5794,-1.5871,-1.5883,-1.588,-1.5839,-1.5883,-1.5898,-1.5872,-1.6029,-1.5981,-1.6,-1.6062,-1.6219,-1.6228,-1.6237,-1.6301,-1.632,-1.6335,0,0,0,0,0,0,-1.567,-1.5704,-1.5687,-1.5793,-1.583,-1.5863,-1.5919,-1.5899,-1.5949,-1.5941,-1.5935,-1.5945,-1.6042,-1.606,-1.6006,-1.6176,-1.6118,-1.6131,-1.616,-1.6178,-1.6192,-1.6187,-1.595,0,0,0,0,0,-1.5696,-1.5755,-1.5782,-1.5874,-1.5893,-1.5903,-1.5936,-1.593,-1.5968,-1.5984,-1.6006,-1.6044,-1.6102,-1.6141,-1.6196,-1.6309,-1.6318,-1.6361,-1.6375,-1.6386,-1.6399,-1.6461,-1.648,-1.6271,-1.6271,-1.6271,0,0,-1.5751,-1.5776,-1.5815,-1.5887,-1.5914,-1.5977,-1.5916,-1.5985,-1.6032,-1.5994,-1.6084,-1.6101,-1.6143,-1.6247,-1.6294,-1.6266,-1.6458,-1.6398,-1.6407,-1.6413,-1.6472,-1.6492,-1.6509,-1.6277,-1.6276,-1.6275,0,0,-1.5882,-1.5907,-1.5987,-1.6015,-1.6057,-1.6063,-1.6082,-1.6118,-1.6128,-1.6217,-1.619,-1.6245,-1.6345,-1.6377,-1.6406,-1.6548,-1.6526,-1.6566,-1.6642,-1.6702,-1.6719,-1.6733,-1.6785,-1.6804,-1.6578,-1.6578,-1.6578,0,-1.5946,-1.6038,-1.603,-1.6101,-1.6134,-1.6101,-1.6181,-1.6209,-1.6268,-1.6291,-1.6258,-1.6383,-1.6409,-1.652,-1.6555,-1.6579,-1.6601,-1.6562,-1.6717,-1.6731,-1.6745,-1.6794,-1.6814,-1.6583,-1.6582,-1.6581,-1.6581,0,-1.6114,-1.6179,-1.6238,-1.6294,-1.6333,-1.6408,-1.6412,-1.6452,-1.6442,-1.6452,-1.6543,-1.6572,-1.6633,-1.6658,-1.6649,-1.6768,-1.6749,-1.6717,-1.6659,-1.677,-1.6816,-1.6835,-1.6589,-1.6588,-1.6586,-1.6585,0,0,-1.6291,-1.6339,-1.6362,-1.6387,-1.643,-1.648,-1.6553,-1.6611,-1.6647,-1.6687,-1.675,-1.6834,-1.6804,-1.6837,-1.6831,-1.6884,-1.6996,-1.6844,-1.6845,-1.6873,-1.713,-1.7156,-1.7178,-1.698,-1.6984,-1.6986,-1.7127,0,-1.6426,-1.6555,-1.6549,-1.667,-1.673,-1.6698,-1.6762,-1.6796,-1.6807,-1.6859,-1.687,-1.6931,-1.6886,-1.6906,-1.6956,-1.6971,-1.7048,-1.6961,-1.704,-1.7043,-1.7032,-1.7202,-1.723,-1.7361,-1.7145,-1.7148,-1.715,0,-1.6603,-1.6649,-1.6775,-1.6809,-1.6834,-1.6892,-1.6944,-1.6994,-1.7032,-1.7036,-1.7072,-1.7057,-1.7132,-1.707,-1.7174,-1.7115,-1.7147,-1.7159,-1.7164,-1.7173,-1.7105,-1.7217,-1.7402,-1.7423,-1.7178,-1.7176,-1.7174,0,-1.6721,-1.6814,-1.6901,-1.6923,-1.6965,-1.7006,-1.7025,-1.7059,-1.7094,-1.714,-1.7163,-1.7217,-1.7247,-1.7289,-1.729,-1.7245,-1.7395,-1.7333,-1.7402,-1.7402,-1.7437,-1.7435,-1.7632,-1.7454,-1.7454,-1.7453,-1.7453,0,-1.6875,-1.6954,-1.6955,-1.7009,-1.7097,-1.7089,-1.7176,-1.719,-1.722,-1.7277,-1.7253,-1.7307,-1.7303,-1.7358,-1.7358,-1.7445,-1.7458,-1.7464,-1.7464,-1.7468,-1.7467,-1.749,-1.7482,-1.7458,-1.7457,-1.7456,-1.7455,0,-1.7022,-1.7026,-1.712,-1.715,-1.716,-1.7223,-1.725,-1.7301,-1.7308,-1.7381,-1.7397,-1.7409,-1.7473,-1.7476,-1.7549,-1.7549,-1.7655,-1.7644,-1.7643,-1.7641,-1.771,-1.7704,-1.793,-1.7959,-1.776,-1.7762,-1.7764,0,-1.7122,-1.7181,-1.7218,-1.7254,-1.7275,-1.7334,-1.7369,-1.7363,-1.7401,-1.7447,-1.7494,-1.7554,-1.7602,-1.7705,-1.772,-1.7776,-1.7767,-1.7842,-1.7775,-1.7777,-1.777,-1.7768,-1.7774,-1.7856,-1.7858,-1.786,-1.7861,0,-1.7298,-1.7296,-1.7348,-1.74,-1.7443,-1.7484,-1.7522,-1.7553,-1.7551,-1.7595,-1.7659,-1.7696,-1.777,-1.7831,-1.7885,-1.7905,-1.7884,-1.7882,-1.7901,-1.7907,-1.7904,-1.7908,-1.768,-1.7877,-1.7876,-1.7874,-1.7874,-1.7873,-1.7425,-1.7477,-1.7511,-1.7569,-1.7597,-1.7633,-1.7683,-1.7696,-1.7748,-1.7808,-1.78,-1.7872,-1.7907,-1.7977,-1.8001,-1.8057,-1.8032,-1.8059,-1.8066,-1.8074,-1.8082,-1.7893,-1.8067,-1.8066,-1.8066,-1.8066,-1.8065,0,-1.7602,-1.7621,-1.7675,-1.7728,-1.7774,-1.7748,-1.7788,-1.7829,-1.7892,-1.7926,-1.7973,-1.8047,-1.8105,-1.8124,-1.8181,-1.8222,-1.8214,-1.8238,-1.8236,-1.8241,-1.8101,-1.8079,-1.8244,-1.8244,-1.8244,-1.8243,-1.8243,-1.8243,-1.7699,-1.7786,-1.7788,-1.7888,-1.7907,-1.7976,-1.8002,-1.8035,-1.8062,-1.8145,-1.8193,-1.8204,-1.8233,-1.8291,-1.8344,-1.8348,-1.8371,-1.8399,-1.84,-1.8269,-1.8251,-1.8234,-1.8214,-1.8404,-1.8404,-1.8536,-1.8537,-1.8538]},{"header":{"parameterUnit":"m.s-1","parameterCategory":1,"la1":30.2991,"la2":30.254,"lo1":-89.0895,"lo2":-89.0444,"dy":0.0017,"dx":0.0017,"nx":28,"ny":28,"refTime":"2023-08-29T09:00:00:Z","depth":0,"parameterNumber":3,"parameterNumberName":"V-component_of_WINDS"},"data":[0,0,0,0,0,0,0,0,0,0,0,0,0,0,0,0,0,0,0,0,0,0,0,0,0,0,0,0,0,0,0,0,0,0,0,0,0,0,0,0,0,0,0,0,0,0,0,0,0,0,0,0,0,0,0,0,0,0,-5.8194,-5.8195,0,-5.8279,-5.828,-5.8281,-5.8199,-5.8196,-5.8192,-5.8189,-5.8273,-5.8278,-5.8283,0,0,0,0,0,0,0,0,0,0,0,0,0,-5.7956,-5.7961,-5.8194,-5.8195,-5.8196,-5.8279,-5.828,-5.8281,-5.8199,-5.8195,-5.8191,-5.8188,-5.8271,-5.8277,-5.8283,0,0,0,0,0,0,0,0,0,0,0,0,0,-5.8052,-5.7962,-5.8193,-5.8165,-5.8163,-5.8278,-5.828,-5.8281,-5.82,-5.8195,-5.819,-5.8186,-5.8269,-5.8276,-5.8284,-5.843,0,0,-5.8308,-5.8312,0,0,0,0,0,0,0,0,-5.8046,-5.8061,-5.8168,-5.8167,-5.8166,-5.8223,-5.8226,-5.8331,-5.8201,-5.8186,-5.8189,-5.8184,-5.826,-5.8268,-5.8295,-5.8434,-5.8438,-5.8309,-5.8314,-5.8317,-5.8319,0,0,0,0,0,0,0,-5.804,-5.8056,-5.8227,-5.817,-5.8168,-5.8147,-5.8155,-5.8246,-5.8249,-5.8187,-5.8181,-5.8193,-5.8258,-5.8287,-5.8296,-5.8439,-5.8309,-5.8316,-5.832,-5.8324,-5.8701,-5.8706,0,0,0,0,0,0,-5.8037,-5.8051,-5.8224,-5.823,-5.8093,-5.8155,-5.8164,-5.821,-5.8248,-5.8249,-5.8197,-5.8189,-5.8276,-5.8287,-5.8299,-5.8472,-5.8317,-5.8324,-5.8329,-5.8696,-5.8702,-5.8708,0,0,0,0,0,0,-5.8032,-5.8053,-5.8221,-5.8139,-5.8159,-5.8164,-5.8216,-5.8214,-5.8243,-5.8255,-5.8255,-5.8226,-5.8273,-5.8288,-5.8398,-5.8473,-5.8328,-5.8335,-5.869,-5.8698,-5.8705,-5.8819,0,0,0,0,0,0,-5.8026,-5.8052,-5.8109,-5.8141,-5.8164,-5.8321,-5.8221,-5.8219,-5.8257,-5.8247,-5.8283,-5.8284,-5.827,-5.8387,-5.8406,-5.8482,-5.8341,-5.8683,-5.8693,-5.8703,-5.8809,-5.883,-5.8848,0,0,0,0,0,-5.8018,-5.8137,-5.8112,-5.8133,-5.8235,-5.8325,-5.8338,-5.8321,-5.8264,-5.832,-5.8328,-5.8283,-5.8462,-5.8399,-5.842,-5.8499,-5.8678,-5.869,-5.8702,-5.88,-5.8826,-5.8848,0,0,0,0,0,0,-5.8112,-5.814,-5.8113,-5.8247,-5.8285,-5.8311,-5.8382,-5.8349,-5.8402,-5.8391,-5.8365,-5.8374,-5.8491,-5.8506,-5.8435,-5.8641,-5.856,-5.8577,-5.8628,-5.8653,-5.8672,-5.8666,-5.8348,0,0,0,0,0,-5.8148,-5.8221,-5.8241,-5.8357,-5.8377,-5.8377,-5.8415,-5.8399,-5.8436,-5.8451,-5.8467,-5.8504,-5.8568,-5.8611,-5.8671,-5.881,-5.8816,-5.8875,-5.8895,-5.8911,-5.8926,-5.9,-5.9026,-5.8747,-5.8747,-5.8747,0,0,-5.8224,-5.8248,-5.8296,-5.8377,-5.8404,-5.8478,-5.8391,-5.8473,-5.8527,-5.8463,-5.8569,-5.8582,-5.8621,-5.8747,-5.8803,-5.8762,-5.9004,-5.8926,-5.8939,-5.8945,-5.9015,-5.9041,-5.9064,-5.8755,-5.8754,-5.8753,0,0,-5.84,-5.8426,-5.8526,-5.8555,-5.8597,-5.8596,-5.862,-5.8652,-5.8659,-5.8765,-5.8718,-5.8781,-5.8893,-5.8923,-5.8953,-5.914,-5.9101,-5.916,-5.9263,-5.9336,-5.9358,-5.9377,-5.9444,-5.9468,-5.9174,-5.9175,-5.9175,0,-5.8488,-5.86,-5.858,-5.8667,-5.8703,-5.8649,-5.8749,-5.8778,-5.8837,-5.8863,-5.8817,-5.8956,-5.8979,-5.911,-5.9156,-5.9182,-5.9208,-5.9156,-5.9357,-5.9376,-5.9393,-5.9456,-5.9481,-5.9182,-5.9181,-5.918,-5.918,0,-5.8706,-5.8784,-5.8859,-5.892,-5.8964,-5.9057,-5.9049,-5.9097,-5.9076,-5.9079,-5.9187,-5.9212,-5.9276,-5.9306,-5.9286,-5.9435,-5.9409,-5.9361,-5.9278,-5.9427,-5.9486,-5.951,-5.9192,-5.9189,-5.9187,-5.9185,0,0,-5.8944,-5.8993,-5.9021,-5.9047,-5.909,-5.9149,-5.9238,-5.9302,-5.9343,-5.9386,-5.9459,-5.9555,-5.9511,-5.9544,-5.9527,-5.9591,-5.9737,-5.9534,-5.9535,-5.9571,-5.9902,-5.9938,-5.9966,-5.9711,-5.9716,-5.9719,-5.9898,0,-5.9122,-5.9279,-5.9263,-5.9411,-5.9483,-5.9433,-5.951,-5.9544,-5.9549,-5.9609,-5.9614,-5.9682,-5.9618,-5.9638,-5.9699,-5.9707,-5.9803,-5.9693,-5.9778,-5.9782,-5.977,-5.9997,-6.0036,-6.0203,-5.9921,-5.9925,-5.9928,0,-5.935,-5.9402,-5.9558,-5.959,-5.9619,-5.9689,-5.9746,-5.9805,-5.9841,-5.984,-5.9879,-5.985,-5.9939,-5.9855,-5.9976,-5.9901,-5.9935,-5.9944,-5.995,-5.9957,-5.9864,-6.001,-6.0256,-6.0282,-5.9964,-5.9961,-5.9958,0,-5.9507,-5.9616,-5.9724,-5.9748,-5.9788,-5.9838,-5.9857,-5.9889,-5.9928,-5.9978,-6.0003,-6.0061,-6.0093,-6.0138,-6.0126,-6.0066,-6.0249,-6.0165,-6.025,-6.0251,-6.0291,-6.0289,-6.0546,-6.0313,-6.0313,-6.0312,-6.0312,0,-5.9707,-5.9804,-5.9795,-5.9861,-5.9968,-5.9949,-6.0055,-6.0067,-6.0096,-6.0162,-6.0122,-6.0185,-6.0165,-6.0226,-6.0217,-6.0318,-6.0333,-6.0334,-6.033,-6.0338,-6.0338,-6.0359,-6.0347,-6.0319,-6.0317,-6.0316,-6.0315,0,-5.9902,-5.99,-6.0013,-6.0042,-6.0051,-6.0129,-6.0152,-6.0214,-6.0216,-6.03,-6.0319,-6.0321,-6.0392,-6.0384,-6.0462,-6.0456,-6.0581,-6.0563,-6.0569,-6.0565,-6.0651,-6.0643,-6.0932,-6.0969,-6.0712,-6.0714,-6.0716,0,-6.0029,-6.0103,-6.014,-6.0182,-6.0205,-6.0273,-6.0313,-6.0296,-6.034,-6.0387,-6.0443,-6.051,-6.0562,-6.0677,-6.0684,-6.0744,-6.0727,-6.0824,-6.0736,-6.0741,-6.0729,-6.0725,-6.0731,-6.0842,-6.0845,-6.0847,-6.0849,0,-6.0256,-6.0251,-6.0311,-6.0372,-6.0421,-6.0467,-6.0509,-6.0545,-6.0532,-6.0582,-6.0654,-6.0695,-6.0776,-6.0842,-6.0899,-6.0916,-6.0881,-6.0877,-6.09,-6.0908,-6.0909,-6.0909,-6.0617,-6.087,-6.0868,-6.0866,-6.0865,-6.0864,-6.0421,-6.0484,-6.052,-6.0588,-6.0618,-6.0658,-6.0717,-6.0727,-6.0787,-6.0852,-6.0838,-6.0919,-6.0953,-6.1025,-6.1048,-6.111,-6.1075,-6.1108,-6.1116,-6.1125,-6.1135,-6.0899,-6.112,-6.112,-6.1119,-6.1119,-6.1118,0,-6.0645,-6.0666,-6.0729,-6.0789,-6.0843,-6.0806,-6.085,-6.0896,-6.0969,-6.1004,-6.1057,-6.1139,-6.1204,-6.1217,-6.1278,-6.1325,-6.131,-6.1342,-6.1338,-6.1343,-6.1163,-6.1138,-6.1353,-6.1353,-6.1353,-6.1353,-6.1353,-6.1353,-6.0768,-6.0874,-6.0873,-6.0992,-6.1011,-6.1092,-6.112,-6.1156,-6.1184,-6.1279,-6.1332,-6.1341,-6.1367,-6.1429,-6.1486,-6.1488,-6.1513,-6.1551,-6.1546,-6.1379,-6.1355,-6.1333,-6.1308,-6.1556,-6.1556,-6.172,-6.1722,-6.1723]}]]